Location: Unspecified
(0.0000°N, 0.0000°E)
Time: 07:15:20
(UTC+00:00)

Vanguard 2 Rocket - Pass Details

Date: 21 December 2018
Orbit: 554 x 3326 km, 32.9° (Epoch: 16 June)

Event Time Altitude Azimuth Distance (km) Brightness Sun altitude
Rises 14:14:13 0° 276° (W) 4,492 10.9 49.5°
Reaches altitude 10° 14:17:06 10° 266° (W) 3,845 10.8 48.9°
Maximum altitude 14:26:46 36° 203° (SSW) 3,205 11.1 47.0°
Drops below altitude 10° 14:41:55 10° 143° (SE) 5,940 11.1 43.9°
Sets 14:47:52 0° 135° (SE) 7,195 11.4 42.6°
